Date,TemperatureHighF,TemperatureAvgF,TemperatureLowF,DewpointHighF,DewpointAvgF,DewpointLowF,HumidityHigh,HumidityAvg,HumidityLow,PressureMaxIn,PressureMinIn,WindSpeedMaxMPH,WindSpeedAvgMPH,GustSpeedMaxMPH,PrecipitationSumIn
2013-3-3,45.0,39.2,32.0,34.3,31.5,27.3,83,74,65,29.93,29.72,14,8,18,0.00
2013-3-4,41.0,33.8,27.0,33.8,29.0,20.3,94,83,69,30.11,29.66,14,4,25,0.00
2013-3-5,36.0,27.8,21.0,22.3,19.2,16.0,83,72,55,30.47,30.09,29,11,34,0.00
2013-3-6,41.0,28.2,17.1,24.3,20.4,15.8,92,74,48,30.50,30.28,12,4,15,0.00
2013-3-7,55.9,36.7,24.1,31.5,26.2,19.9,86,69,37,30.32,30.11,17,6,18,0.00
2013-3-8,60.1,41.6,26.1,42.6,33.4,23.4,93,75,50,30.21,29.93,16,6,23,0.16
2013-3-9,59.0,46.8,34.0,54.3,44.4,32.0,95,91,80,29.93,29.54,23,6,27,0.26
2013-3-10,34.0,26.8,21.0,32.0,25.2,19.8,100,94,92,30.04,29.74,23,10,34,0.00
2013-3-11,30.9,21.8,10.0,22.5,18.2,9.1,95,92,87,30.11,29.97,15,6,21,0.11
2013-3-12,35.1,24.0,10.0,24.8,21.4,13.1,94,85,71,30.41,30.09,23,6,27,0.01
2013-3-13,39.9,22.0,5.0,29.1,19.4,7.0,93,81,60,30.52,30.30,9,2,10,0.01
2013-3-14,62.1,40.1,25.0,43.5,33.2,23.9,94,74,47,30.30,30.10,8,2,10,0.00
2013-3-15,63.0,44.1,28.0,47.5,39.6,30.7,96,80,50,30.10,29.73,12,3,17,0.00
2013-3-16,42.1,31.8,27.0,39.7,27.4,23.0,92,84,75,30.21,29.85,16,6,20,0.00
2013-3-17,48.0,34.5,25.0,34.9,27.8,21.7,92,77,58,30.18,29.76,14,6,19,0.00
2013-3-18,44.1,34.7,19.9,35.4,23.5,15.1,95,69,39,30.12,29.73,28,9,33,0.06
2013-3-19,55.0,33.6,21.9,33.8,21.4,18.0,92,66,30,30.40,30.10,20,4,23,0.00
2013-3-20,39.9,26.2,16.0,18.0,12.8,5.9,85,60,35,30.46,30.16,14,5,18,0.00
2013-3-21,33.1,26.3,19.0,24.1,18.7,12.9,89,74,61,30.16,29.97,13,5,15,0.03
2013-3-22,35.1,30.5,27.0,27.3,23.9,20.7,90,77,65,30.09,30.01,8,3,10,0.01
2013-3-23,37.0,31.5,28.9,30.4,26.7,23.2,93,83,67,30.17,30.06,15,6,19,0.01
2013-3-24,30.9,26.9,24.1,27.7,20.9,16.0,92,80,67,30.18,30.11,21,9,25,0.01
2013-3-25,30.9,27.1,24.1,24.8,21.9,19.9,91,82,69,30.43,30.17,18,8,23,0.00
2013-3-26,44.1,30.4,15.1,23.4,20.0,14.0,91,68,40,30.45,30.28,8,3,13,0.00
2013-3-27,54.0,37.7,24.1,33.8,27.6,21.2,89,69,45,30.31,30.19,17,6,18,0.00
2013-3-28,60.1,40.2,19.9,36.0,30.8,21.6,96,69,39,30.29,30.17,10,3,16,0.00
2013-3-29,70.0,49.4,26.1,42.4,33.6,25.0,95,60,28,30.24,30.03,13,4,18,0.00
2013-3-30,68.0,55.9,48.9,55.6,46.6,38.3,96,75,38,30.09,29.90,18,4,25,0.91
2013-3-31,61.0,48.8,34.0,43.7,35.3,27.3,93,65,29,30.17,29.94,18,6,27,0.06